[[{"header":{"parameterUnit":"m.s-1","parameterCategory":1,"la1":30.2991,"la2":30.254,"lo1":-89.0895,"lo2":-89.0444,"dy":0.0017,"dx":0.0017,"nx":28,"ny":28,"refTime":"2024-08-26T09:00:00:Z","depth":0,"parameterNumber":2,"parameterNumberName":"U-component_of_WINDS"},"data":[0,0,0,0,0,0,0,0,0,0,0,0,0,0,0,0,0,0,0,0,0,0,0,0,0,0,0,0,0,0,0,0,0,0,0,0,0,0,0,0,0,0,0,0,0,0,0,0,0,0,0,0,0,0,0,0,0,0,-3.3367,-3.3366,0,-3.3312,-3.3312,-3.3311,-3.3216,-3.3214,-3.3213,-3.3211,-3.3158,-3.3158,-3.3158,0,0,0,0,0,0,0,0,0,0,0,0,0,-3.3393,-3.3393,-3.3367,-3.3366,-3.3365,-3.3312,-3.3312,-3.3311,-3.3217,-3.3214,-3.3212,-3.321,-3.3158,-3.3158,-3.3158,0,0,0,0,0,0,0,0,0,0,0,0,0,-3.3364,-3.3393,-3.3367,-3.3312,-3.3306,-3.3313,-3.3312,-3.3311,-3.3217,-3.3214,-3.3212,-3.3209,-3.3158,-3.3158,-3.3158,-3.3215,0,0,-3.316,-3.316,0,0,0,0,0,0,0,0,-3.3366,-3.3363,-3.3321,-3.3316,-3.331,-3.3268,-3.3301,-3.3279,-3.3218,-3.3251,-3.3211,-3.3208,-3.3197,-3.3194,-3.319,-3.3212,-3.321,-3.316,-3.316,-3.316,-3.316,0,0,0,0,0,0,0,-3.3368,-3.3365,-3.3345,-3.332,-3.3313,-3.3291,-3.3284,-3.3296,-3.324,-3.3248,-3.3241,-3.3236,-3.3193,-3.319,-3.3188,-3.3209,-3.316,-3.316,-3.316,-3.316,-3.3278,-3.3281,0,0,0,0,0,0,-3.3378,-3.3367,-3.3347,-3.3344,-3.3332,-3.3293,-3.3285,-3.3284,-3.3239,-3.323,-3.3238,-3.3231,-3.319,-3.3187,-3.3186,-3.325,-3.316,-3.316,-3.3161,-3.3275,-3.3279,-3.3282,0,0,0,0,0,0,-3.3379,-3.3377,-3.3349,-3.3354,-3.3348,-3.3295,-3.3295,-3.3285,-3.3281,-3.3232,-3.3222,-3.3244,-3.3188,-3.3185,-3.3209,-3.3247,-3.3161,-3.3161,-3.3272,-3.3276,-3.328,-3.338,0,0,0,0,0,0,-3.338,-3.3378,-3.3398,-3.3355,-3.3349,-3.3372,-3.3297,-3.3285,-3.3281,-3.3272,-3.3235,-3.3226,-3.3186,-3.3209,-3.3209,-3.3246,-3.3161,-3.3268,-3.3274,-3.3279,-3.3373,-3.3387,-3.3399,0,0,0,0,0,-3.3381,-3.3428,-3.3399,-3.3397,-3.3372,-3.3375,-3.3371,-3.3323,-3.3285,-3.3305,-3.3274,-3.3228,-3.3243,-3.3212,-3.3211,-3.3249,-3.3265,-3.3272,-3.3278,-3.3367,-3.3384,-3.3399,0,0,0,0,0,0,-3.3477,-3.3421,-3.3389,-3.3423,-3.3404,-3.3359,-3.3383,-3.3342,-3.3335,-3.3326,-3.3267,-3.326,-3.3292,-3.3272,-3.3239,-3.3303,-3.3247,-3.3254,-3.3314,-3.333,-3.3343,-3.3348,-3.3162,0,0,0,0,0,-3.3502,-3.3508,-3.3459,-3.3494,-3.3486,-3.3436,-3.3435,-3.34,-3.3379,-3.337,-3.3341,-3.3323,-3.3324,-3.3326,-3.3323,-3.3369,-3.3361,-3.3395,-3.3408,-3.3419,-3.3427,-3.3452,-3.3467,-3.3303,-3.3303,-3.3303,0,0,-3.3554,-3.3524,-3.3531,-3.3512,-3.3494,-3.3503,-3.343,-3.3442,-3.3448,-3.3372,-3.3393,-3.3371,-3.3348,-3.3383,-3.3397,-3.3368,-3.347,-3.3428,-3.3437,-3.3438,-3.346,-3.3476,-3.349,-3.3307,-3.3307,-3.3306,0,0,-3.3653,-3.363,-3.3658,-3.3641,-3.3614,-3.3581,-3.3588,-3.3548,-3.3531,-3.3551,-3.3495,-3.3502,-3.3504,-3.349,-3.3483,-3.358,-3.3538,-3.3581,-3.365,-3.3675,-3.3688,-3.3699,-3.3736,-3.375,-3.3587,-3.3588,-3.3588,0,-3.3722,-3.3731,-3.3677,-3.3693,-3.3688,-3.3619,-3.3648,-3.3634,-3.3608,-3.3606,-3.3574,-3.3576,-3.3555,-3.3588,-3.3612,-3.3608,-3.3615,-3.3585,-3.369,-3.3701,-3.3711,-3.3745,-3.3759,-3.3593,-3.3593,-3.3592,-3.3591,0,-3.3818,-3.3826,-3.3852,-3.3828,-3.3825,-3.3848,-3.3799,-3.3802,-3.3767,-3.3738,-3.3761,-3.3733,-3.3726,-3.373,-3.3696,-3.3759,-3.3742,-3.3701,-3.3644,-3.3733,-3.3765,-3.3777,-3.3601,-3.3599,-3.3598,-3.3596,0,0,-3.3976,-3.3923,-3.3934,-3.3924,-3.3889,-3.3895,-3.3915,-3.3907,-3.3913,-3.3897,-3.3914,-3.3918,-3.3881,-3.3873,-3.3837,-3.3859,-3.394,-3.3815,-3.3814,-3.3841,-3.4011,-3.4044,-3.406,-3.3912,-3.3914,-3.3916,-3.4014,0,-3.407,-3.41,-3.4053,-3.4096,-3.4104,-3.4039,-3.4057,-3.4039,-3.4013,-3.4017,-3.3988,-3.3993,-3.3941,-3.3937,-3.3955,-3.3927,-3.3974,-3.3918,-3.3929,-3.393,-3.3939,-3.4076,-3.411,-3.4204,-3.4026,-3.4028,-3.4029,0,-3.4183,-3.4174,-3.4217,-3.4182,-3.4183,-3.42,-3.419,-3.4194,-3.4173,-3.4153,-3.4146,-3.4103,-3.4122,-3.4066,-3.4093,-3.4056,-3.4058,-3.4045,-3.4047,-3.4048,-3.3986,-3.4083,-3.4233,-3.4248,-3.4047,-3.4046,-3.4045,0,-3.4298,-3.4295,-3.4321,-3.4314,-3.4273,-3.4287,-3.4271,-3.4247,-3.4246,-3.4237,-3.4237,-3.4231,-3.4228,-3.4226,-3.4184,-3.4146,-3.4217,-3.4157,-3.4203,-3.4204,-3.4222,-3.4222,-3.4377,-3.422,-3.4219,-3.4219,-3.4219,0,-3.4408,-3.4438,-3.4372,-3.4389,-3.4421,-3.4367,-3.44,-3.4378,-3.4357,-3.4369,-3.4313,-3.4326,-3.4268,-3.4275,-3.4242,-3.4271,-3.427,-3.4256,-3.4247,-3.4262,-3.4264,-3.4264,-3.4257,-3.4223,-3.4222,-3.4221,-3.4221,0,-3.4542,-3.4499,-3.4523,-3.4483,-3.4473,-3.4499,-3.4465,-3.448,-3.445,-3.4466,-3.4467,-3.4421,-3.4427,-3.4384,-3.4382,-3.436,-3.4406,-3.4384,-3.4413,-3.4407,-3.4457,-3.4454,-3.4618,-3.4638,-3.4467,-3.4468,-3.447,0,-3.4616,-3.4637,-3.46,-3.4603,-3.459,-3.4597,-3.4595,-3.4544,-3.4545,-3.4524,-3.4542,-3.4543,-3.4541,-3.4554,-3.4521,-3.452,-3.45,-3.4558,-3.4499,-3.4515,-3.4504,-3.4504,-3.4507,-3.4571,-3.4573,-3.4575,-3.4576,0,-3.4754,-3.4732,-3.4732,-3.4725,-3.4725,-3.4718,-3.4707,-3.4713,-3.4657,-3.4662,-3.4667,-3.4666,-3.4664,-3.4667,-3.466,-3.4644,-3.4603,-3.4594,-3.4605,-3.4622,-3.4639,-3.4633,-3.4449,-3.4591,-3.459,-3.4589,-3.4588,-3.4587,-3.4861,-3.4878,-3.4855,-3.4857,-3.4843,-3.4835,-3.4847,-3.4819,-3.4822,-3.4816,-3.4786,-3.4797,-3.4778,-3.4763,-3.4753,-3.4762,-3.4735,-3.475,-3.4754,-3.4759,-3.477,-3.4636,-3.476,-3.476,-3.4759,-3.4759,-3.4759,0,-3.4998,-3.498,-3.4983,-3.4969,-3.4972,-3.493,-3.4916,-3.4922,-3.4933,-3.4917,-3.4917,-3.4925,-3.4927,-3.4896,-3.4895,-3.4909,-3.489,-3.4911,-3.491,-3.4908,-3.4793,-3.4785,-3.4926,-3.4926,-3.4926,-3.4926,-3.4926,-3.4926,-3.507,-3.5097,-3.5073,-3.5093,-3.5075,-3.5085,-3.5081,-3.5074,-3.5062,-3.5072,-3.5074,-3.5053,-3.5032,-3.503,-3.5032,-3.5022,-3.5026,-3.5054,-3.5039,-3.4932,-3.4916,-3.49,-3.4892,-3.5055,-3.5055,-3.5153,-3.5154,-3.5155]},{"header":{"parameterUnit":"m.s-1","parameterCategory":1,"la1":30.2991,"la2":30.254,"lo1":-89.0895,"lo2":-89.0444,"dy":0.0017,"dx":0.0017,"nx":28,"ny":28,"refTime":"2024-08-26T09:00:00:Z","depth":0,"parameterNumber":3,"parameterNumberName":"V-component_of_WINDS"},"data":[0,0,0,0,0,0,0,0,0,0,0,0,0,0,0,0,0,0,0,0,0,0,0,0,0,0,0,0,0,0,0,0,0,0,0,0,0,0,0,0,0,0,0,0,0,0,0,0,0,0,0,0,0,0,0,0,0,0,-0.1642,-0.1642,0,-0.1675,-0.1675,-0.1676,-0.167,-0.167,-0.1669,-0.1668,-0.1706,-0.1707,-0.1709,0,0,0,0,0,0,0,0,0,0,0,0,0,-0.1576,-0.1578,-0.1642,-0.1642,-0.1642,-0.1675,-0.1675,-0.1676,-0.167,-0.167,-0.1669,-0.1668,-0.1705,-0.1707,-0.1709,0,0,0,0,0,0,0,0,0,0,0,0,0,-0.1607,-0.1578,-0.1642,-0.1644,-0.1644,-0.1675,-0.1675,-0.1676,-0.167,-0.167,-0.1669,-0.1668,-0.1704,-0.1707,-0.1709,-0.1741,0,0,-0.1716,-0.1717,0,0,0,0,0,0,0,0,-0.1605,-0.1609,-0.1643,-0.1643,-0.1644,-0.1667,-0.1666,-0.1698,-0.1671,-0.1661,-0.1668,-0.1667,-0.1694,-0.1697,-0.1705,-0.1742,-0.1744,-0.1716,-0.1718,-0.1719,-0.1719,0,0,0,0,0,0,0,-0.1603,-0.1608,-0.1655,-0.1643,-0.1644,-0.1644,-0.1647,-0.1672,-0.1682,-0.1661,-0.1661,-0.1665,-0.1694,-0.1703,-0.1706,-0.1744,-0.1716,-0.1718,-0.172,-0.172,-0.1811,-0.1812,0,0,0,0,0,0,-0.16,-0.1606,-0.1654,-0.1656,-0.1622,-0.1646,-0.1649,-0.1661,-0.1681,-0.1684,-0.1666,-0.1664,-0.1699,-0.1703,-0.1707,-0.1747,-0.1718,-0.1721,-0.1722,-0.181,-0.1811,-0.1812,0,0,0,0,0,0,-0.1598,-0.1604,-0.1652,-0.1631,-0.1637,-0.1648,-0.1661,-0.1662,-0.1671,-0.1685,-0.1687,-0.1673,-0.1699,-0.1704,-0.1732,-0.1749,-0.1722,-0.1724,-0.1809,-0.181,-0.1812,-0.1827,0,0,0,0,0,0,-0.1597,-0.1604,-0.1615,-0.1631,-0.1638,-0.1676,-0.1662,-0.1663,-0.1675,-0.1673,-0.1692,-0.1694,-0.1699,-0.1729,-0.1735,-0.1751,-0.1726,-0.1807,-0.1809,-0.1811,-0.1825,-0.1829,-0.1832,0,0,0,0,0,-0.1594,-0.1618,-0.1616,-0.1622,-0.1653,-0.1677,-0.1681,-0.1685,-0.1676,-0.1688,-0.1697,-0.1694,-0.1745,-0.1732,-0.1738,-0.1756,-0.1806,-0.1809,-0.1811,-0.1823,-0.1828,-0.1832,0,0,0,0,0,0,-0.1605,-0.1621,-0.1618,-0.1648,-0.1661,-0.1676,-0.1692,-0.169,-0.1707,-0.1705,-0.171,-0.1714,-0.1743,-0.1752,-0.1737,-0.1788,-0.1775,-0.1778,-0.1782,-0.1786,-0.179,-0.1788,-0.1727,0,0,0,0,0,-0.1611,-0.1629,-0.1641,-0.1666,-0.1673,-0.1681,-0.1692,-0.1694,-0.1708,-0.1714,-0.1725,-0.174,-0.176,-0.1773,-0.1792,-0.1825,-0.183,-0.184,-0.1844,-0.1846,-0.1851,-0.1871,-0.1876,-0.182,-0.182,-0.182,0,0,-0.1623,-0.1634,-0.1645,-0.1669,-0.168,-0.1699,-0.1686,-0.1707,-0.1723,-0.1718,-0.1746,-0.1754,-0.1771,-0.1803,-0.1817,-0.1811,-0.1867,-0.1849,-0.1851,-0.1854,-0.1874,-0.1879,-0.1884,-0.1821,-0.1821,-0.1821,0,0,-0.1656,-0.1665,-0.1688,-0.1699,-0.1714,-0.172,-0.1725,-0.174,-0.1746,-0.1773,-0.1771,-0.1789,-0.1822,-0.1835,-0.1846,-0.1884,-0.1882,-0.1889,-0.1909,-0.1928,-0.1933,-0.1937,-0.1953,-0.1958,-0.1893,-0.1893,-0.1893,0,-0.167,-0.1699,-0.17,-0.1722,-0.1733,-0.1728,-0.1753,-0.1763,-0.1785,-0.1793,-0.1785,-0.1828,-0.1839,-0.1874,-0.1883,-0.1891,-0.1899,-0.1889,-0.1932,-0.1936,-0.1939,-0.1955,-0.196,-0.1894,-0.1894,-0.1894,-0.1894,0,-0.1716,-0.1736,-0.1753,-0.1773,-0.1786,-0.1809,-0.1815,-0.1828,-0.1828,-0.1834,-0.1863,-0.1876,-0.1898,-0.1906,-0.1906,-0.1942,-0.1937,-0.193,-0.1917,-0.1946,-0.1961,-0.1966,-0.1895,-0.1895,-0.1895,-0.1894,0,0,-0.176,-0.178,-0.1786,-0.1796,-0.1813,-0.1829,-0.1851,-0.1872,-0.1884,-0.1899,-0.1919,-0.1947,-0.1941,-0.1953,-0.1955,-0.1972,-0.2004,-0.1963,-0.1964,-0.1973,-0.2046,-0.2054,-0.206,-0.2001,-0.2002,-0.2003,-0.2046,0,-0.1797,-0.1836,-0.1838,-0.1875,-0.1894,-0.1889,-0.1909,-0.1923,-0.1929,-0.1947,-0.1954,-0.1975,-0.1963,-0.1971,-0.1987,-0.1996,-0.2019,-0.1993,-0.2023,-0.2024,-0.2022,-0.2067,-0.2075,-0.2115,-0.2051,-0.2052,-0.2053,0,-0.1845,-0.1861,-0.19,-0.1915,-0.1923,-0.1941,-0.1961,-0.1977,-0.1992,-0.1996,-0.2009,-0.2009,-0.2033,-0.2017,-0.2052,-0.2034,-0.2046,-0.2053,-0.2054,-0.206,-0.2042,-0.2077,-0.2127,-0.2135,-0.2061,-0.206,-0.206,0,-0.1877,-0.1907,-0.1935,-0.1943,-0.196,-0.1973,-0.1981,-0.1995,-0.2008,-0.2025,-0.2034,-0.2053,-0.2065,-0.2081,-0.2086,-0.2073,-0.2122,-0.2105,-0.2127,-0.2127,-0.2141,-0.214,-0.2197,-0.2143,-0.2143,-0.2143,-0.2142,0,-0.192,-0.1944,-0.1949,-0.1967,-0.1994,-0.1996,-0.2023,-0.203,-0.2043,-0.2063,-0.2059,-0.2077,-0.2081,-0.2101,-0.2105,-0.2135,-0.2139,-0.2144,-0.2146,-0.2147,-0.2147,-0.2157,-0.2156,-0.2144,-0.2144,-0.2144,-0.2143,0,-0.1961,-0.1964,-0.1995,-0.2008,-0.2012,-0.2032,-0.2045,-0.2062,-0.2067,-0.2092,-0.2097,-0.2106,-0.2129,-0.2135,-0.2162,-0.2165,-0.2201,-0.2198,-0.2196,-0.2197,-0.222,-0.2219,-0.2288,-0.2298,-0.2235,-0.2235,-0.2236,0,-0.1989,-0.2008,-0.2023,-0.2036,-0.2044,-0.2064,-0.2077,-0.2079,-0.2092,-0.2111,-0.2126,-0.2149,-0.2167,-0.2204,-0.2214,-0.2235,-0.2235,-0.2257,-0.2238,-0.2239,-0.2239,-0.2239,-0.2242,-0.2262,-0.2263,-0.2263,-0.2264,0,-0.2041,-0.2042,-0.206,-0.2079,-0.2094,-0.2109,-0.2124,-0.2134,-0.2138,-0.2154,-0.2177,-0.2191,-0.2219,-0.2242,-0.2263,-0.2273,-0.227,-0.2269,-0.2276,-0.2279,-0.2278,-0.2282,-0.221,-0.2268,-0.2268,-0.2268,-0.2267,-0.2267,-0.2079,-0.2096,-0.211,-0.2131,-0.2141,-0.2155,-0.2172,-0.2179,-0.2198,-0.2221,-0.222,-0.2246,-0.2261,-0.229,-0.23,-0.2321,-0.2315,-0.2324,-0.2327,-0.233,-0.2334,-0.2272,-0.2325,-0.2325,-0.2324,-0.2324,-0.2324,0,-0.2133,-0.2142,-0.216,-0.2181,-0.2197,-0.219,-0.2206,-0.2221,-0.2244,-0.2257,-0.2275,-0.2302,-0.2325,-0.2335,-0.2358,-0.2373,-0.2372,-0.2379,-0.238,-0.2383,-0.2337,-0.233,-0.2379,-0.2379,-0.2379,-0.2379,-0.2379,-0.2379,-0.2164,-0.2193,-0.2196,-0.2231,-0.2239,-0.2264,-0.2274,-0.2287,-0.2298,-0.2329,-0.2347,-0.2353,-0.2366,-0.2389,-0.241,-0.2413,-0.2423,-0.2431,-0.2433,-0.2391,-0.2385,-0.238,-0.2374,-0.2432,-0.2432,-0.2478,-0.2478,-0.2479]}]]